Date String (YYYY-MM-DD hh:mm:ss) UTC,Instrument flags,Ambient pressure (hPa),Sample flow (lpm),Bypass flow (lpm),Sample temperature (°C),Ambient temperature (°C),ASC tube jacket temperature (°C),LED temperature (°C),Box temperature (°C),Sample RH (%),Span deviation,Mass concentration (μg/m³),Mass concentration (μg/m³),Mass concentration (μg/m³)
DateTimeUTC,F1_M11,P_M11,Q1_M11,Q2_M11,T1_M11,T2_M11,T3_M11,T4_M11,T5_M11,U1_M11,ZSPAN_M11,X0_M11,X2_M11,X1_M11
2022-02-18 11:00:00,,0826.0,5.00,0.00,21.9,21.2,00.0,30.9,23.5,07.5,0000.0,0006.96,0003.48,0003.24
2022-02-18 11:01:00,,0825.9,5.01,0.00,21.8,21.2,00.0,30.9,23.4,07.6,0000.0,0007.24,0003.54,0003.31
2022-02-18 11:02:00,,0825.8,5.00,0.00,21.8,21.2,00.0,30.9,23.4,07.5,0000.0,0005.76,0003.48,0003.26
2022-02-18 11:03:00,,0825.8,5.00,0.00,21.9,21.7,00.0,30.9,23.6,07.5,0000.0,0005.26,0003.40,0003.19
2022-02-18 11:04:00,,0825.7,4.99,0.00,22.0,22.5,00.0,31.0,23.9,07.4,0000.0,0005.14,0003.33,0003.09
2022-02-18 11:05:00,,0825.7,4.99,0.00,22.2,23.0,00.0,31.0,24.1,07.4,0000.0,0004.91,0003.24,0002.94
2022-02-18 11:06:00,,0825.6,5.02,0.00,22.2,22.8,00.0,31.0,24.1,07.3,0000.0,0004.89,0003.23,0002.91
2022-02-18 11:07:00,,0825.6,4.99,0.00,22.2,22.4,00.0,31.0,24.0,07.4,0000.0,0004.82,0003.18,0002.82
2022-02-18 11:08:00,,0825.5,5.00,0.00,22.2,22.2,00.0,31.0,23.9,07.4,0000.0,0004.51,0003.00,0002.64
2022-02-18 11:09:00,,0825.5,5.01,0.00,22.1,21.9,00.0,31.0,23.8,07.4,0000.0,0004.29,0002.79,0002.42
2022-02-18 11:10:00,,0825.5,5.01,0.00,22.1,21.7,00.0,31.0,23.7,07.4,0000.0,0004.14,0002.62,0002.26
2022-02-18 11:11:00,,0825.5,5.00,0.00,22.0,21.5,00.0,31.0,23.7,07.3,0000.0,0003.69,0002.46,0002.12
2022-02-18 11:12:00,,0825.5,4.99,0.00,22.0,21.4,00.0,31.0,23.6,07.4,0000.0,0003.27,0002.29,0001.95
2022-02-18 11:13:00,,0825.5,5.01,0.00,21.9,21.3,00.0,31.0,23.5,07.4,0000.0,0003.14,0002.16,0001.82
2022-02-18 11:14:00,,0825.5,5.01,0.00,21.9,21.2,00.0,31.0,23.5,07.3,0000.0,0002.99,0002.06,0001.71
2022-02-18 11:15:00,,0825.6,4.99,0.00,21.9,21.2,00.0,31.0,23.4,07.6,0000.0,0002.87,0001.95,0001.60
2022-02-18 11:16:00,,0825.6,5.00,0.00,21.8,21.1,00.0,31.0,23.4,07.6,0000.0,0002.84,0001.91,0001.51
2022-02-18 11:17:00,,0825.6,5.00,0.00,21.9,21.5,00.0,31.0,23.5,07.6,0000.0,0002.78,0001.85,0001.44
2022-02-18 11:18:00,,0825.7,5.01,0.00,22.0,22.2,00.0,31.0,23.8,07.4,0000.0,0002.65,0001.75,0001.36
2022-02-18 11:19:00,,0825.8,5.00,0.00,22.1,22.9,00.0,31.0,24.1,07.2,0000.0,0002.67,0001.67,0001.29
2022-02-18 11:20:00,,0825.9,5.01,0.00,22.2,22.9,00.0,31.1,24.2,07.2,0000.0,0002.54,0001.65,0001.25
2022-02-18 11:21:00,,0826.0,4.98,0.00,22.3,22.7,00.0,31.1,24.2,07.2,0000.0,0002.47,0001.59,0001.21
2022-02-18 11:22:00,,0826.0,5.01,0.00,22.3,22.4,00.0,31.1,24.1,07.3,0000.0,0002.47,0001.54,0001.18
2022-02-18 11:23:00,,0826.0,5.00,0.00,22.3,22.2,00.0,31.1,24.1,07.3,0000.0,0002.41,0001.51,0001.16
2022-02-18 11:24:00,,0826.0,5.00,0.00,22.2,22.0,00.0,31.1,24.0,07.5,0000.0,0002.48,0001.56,0001.19
2022-02-18 11:25:00,,0826.1,5.00,0.00,22.2,21.9,00.0,31.1,23.9,07.6,0000.0,0002.58,0001.63,0001.26
2022-02-18 11:26:00,,0826.1,5.02,0.00,22.2,21.7,00.0,31.1,23.9,07.5,0000.0,0002.49,0001.63,0001.30
2022-02-18 11:27:00,,0826.1,5.01,0.00,22.2,21.6,00.0,31.1,23.9,07.6,0000.0,0002.46,0001.63,0001.34
2022-02-18 11:28:00,,0826.0,4.99,0.00,22.1,21.6,00.0,31.1,23.8,07.5,0000.0,0002.60,0001.68,0001.38
2022-02-18 11:29:00,,0826.0,4.99,0.00,22.1,21.5,00.0,31.1,23.8,07.5,0000.0,0002.71,0001.76,0001.43
2022-02-18 11:30:00,,0826.0,4.99,0.00,22.1,21.4,00.0,31.1,23.8,07.5,0000.0,0002.68,0001.82,0001.49
2022-02-18 11:31:00,,0826.0,5.01,0.00,22.1,21.4,00.0,31.1,23.8,07.5,0000.0,0002.67,0001.88,0001.54
2022-02-18 11:32:00,,0825.8,5.00,0.00,22.1,21.4,00.0,31.1,23.8,07.5,0000.0,0002.75,0001.93,0001.58
2022-02-18 11:33:00,,0825.9,5.00,0.00,22.1,21.3,00.0,31.1,23.8,07.4,0000.0,0002.71,0001.98,0001.60
2022-02-18 11:34:00,,0825.9,4.99,0.00,22.0,21.3,00.0,31.1,23.8,07.5,0000.0,0002.92,0002.13,0001.69
2022-02-18 11:35:00,,0825.9,5.00,0.00,22.0,21.3,00.0,31.1,23.7,07.4,0000.0,0003.00,0002.20,0001.77
2022-02-18 11:36:00,,0825.9,5.01,0.00,22.0,21.3,00.0,31.0,23.7,07.4,0000.0,0003.45,0002.26,0001.80
2022-02-18 11:37:00,,0825.9,5.00,0.00,22.1,21.8,00.0,31.1,23.8,07.4,0000.0,0004.00,0002.32,0001.84
2022-02-18 11:38:00,,0826.0,4.98,0.00,22.2,22.6,00.0,31.1,24.1,07.3,0000.0,0004.24,0002.37,0001.85
2022-02-18 11:39:00,,0826.0,5.00,0.00,22.3,23.2,00.0,31.1,24.3,07.2,0000.0,0004.25,0002.34,0001.85
2022-02-18 11:40:00,,0826.0,5.02,0.00,22.4,23.0,00.0,31.2,24.3,07.1,0000.0,0004.18,0002.30,0001.84
2022-02-18 11:41:00,,0825.9,4.98,0.00,22.4,22.7,00.0,31.2,24.3,07.1,0000.0,0004.16,0002.28,0001.83
2022-02-18 11:42:00,,0825.9,5.00,0.00,22.4,22.5,00.0,31.2,24.2,07.1,0000.0,0004.11,0002.25,0001.83
2022-02-18 11:43:00,,0825.9,5.00,0.00,22.4,22.3,00.0,31.2,24.2,07.1,0000.0,0004.09,0002.25,0001.84
2022-02-18 11:44:00,,0826.0,5.01,0.00,22.4,22.1,00.0,31.2,24.1,07.1,0000.0,0004.40,0002.23,0001.85
2022-02-18 11:45:00,,0826.0,5.00,0.00,22.3,22.0,00.0,31.2,24.1,07.1,0000.0,0004.18,0002.10,0001.78
2022-02-18 11:46:00,,0826.0,5.01,0.00,22.3,21.9,00.0,31.2,24.1,07.1,0000.0,0004.08,0002.02,0001.71
2022-02-18 11:47:00,,0826.0,4.99,0.00,22.3,21.8,00.0,31.2,24.0,07.0,0000.0,0003.61,0001.93,0001.66
2022-02-18 11:48:00,,0826.0,5.02,0.00,22.3,21.7,00.0,31.2,24.0,07.1,0000.0,0003.17,0001.89,0001.61
2022-02-18 11:49:00,,0826.0,5.00,0.00,22.3,21.7,00.0,31.2,24.0,07.1,0000.0,0002.99,0001.86,0001.60
2022-02-18 11:50:00,,0826.1,4.99,0.00,22.3,21.6,00.0,31.2,24.0,07.1,0000.0,0002.82,0001.84,0001.60
2022-02-18 11:51:00,,0826.1,5.01,0.00,22.2,21.6,00.0,31.2,24.0,07.1,0000.0,0002.97,0001.87,0001.61
2022-02-18 11:52:00,,0826.0,5.00,0.00,22.2,21.5,00.0,31.2,23.9,07.1,0000.0,0003.09,0001.91,0001.62
2022-02-18 11:53:00,,0826.1,5.01,0.00,22.2,21.4,00.0,31.2,23.8,07.1,0000.0,0003.19,0001.91,0001.62
2022-02-18 11:54:00,,0826.1,5.00,0.00,22.1,21.3,00.0,31.2,23.7,07.2,0000.0,0003.11,0001.87,0001.60
2022-02-18 11:55:00,,0826.0,4.99,0.00,22.0,21.2,00.0,31.1,23.6,07.2,0000.0,0002.80,0001.89,0001.61
2022-02-18 11:56:00,,0826.1,5.00,0.00,22.0,21.2,00.0,31.1,23.6,07.3,0000.0,0002.94,0001.97,0001.63
2022-02-18 11:57:00,,0826.1,5.01,0.00,22.0,21.5,00.0,31.1,23.7,07.5,0000.0,0003.06,0002.06,0001.70
2022-02-18 11:58:00,,0826.1,4.99,0.00,22.1,22.3,00.0,31.2,23.9,07.4,0000.0,0003.12,0002.12,0001.77
2022-02-18 11:59:00,,0826.1,4.99,0.00,22.3,23.0,00.0,31.2,24.2,07.2,0000.0,0003.11,0002.14,0001.77
